User: anonymous   Login
Location: Unspecified
(0.0000°N, 0.0000°E)
Time: 22:12:11
(UTC+00:00)
Language:

SWISSCUBE - Orbit

View from above orbital plane
View from above orbital plane
View from above satellite
View from above satellite

Ground track
Ground track

The orbit data is extracted from the following two-line orbital elements,

1 35932U 09051B   16337.31320784  .00000212  00000-0  59151-4 0  9995
2 35932  98.4698 106.6382 0008616 131.8644 228.3290 14.55923875381672
Epoch (UTC): 02 December 2016 07:31:01
Eccentricity: 0.0008616
inclination: 98.4698°
perigee height: 700 km
apogee height: 712 km
right ascension of ascending node: 106.6382°
argument of perigee: 131.8644°
revolutions per day: 14.55923875
mean anomaly at epoch: 228.3290°
orbit number at epoch: 38167

The dashed part of the orbit path shows where the satellite is in the earth's shadow,  

DLR